DW8248 Weather Reports


time (UTC)temp
C
wind
direction
speed
KPH
gust
KPH
rain 1hr
cm
rain 24hr
cm
rain mn
cm
humidity
%
barometer
mb
20260508141021 26 314 11.3 16.1 0.00 0.00 0.00 78 1015.6
20260508134851 26 323 11.3 17.7 0.00 0.00 0.00 80 1015.5
20260508132714 25 302 11.3 16.1 0.00 0.00 0.00 80 1015.5
20260508130449 25 302 4.8 11.3 0.00 0.00 0.00 80 1015.3
20260508125424 25 292 4.8 9.7 0.00 0.00 0.00 80 1015.2
20260508123314 24 275 4.8 8.0 0.00 0.00 0.00 79 1015.1
20260508122239 24 268 6.4 9.7 0.00 0.00 0.00 80 1015.1
20260508121205 23 269 6.4 9.7 0.00 0.00 0.00 79 1015.0
20260508120144 23 263 8.0 11.3 0.00 0.00 0.00 80 1014.9
20260508115123 23 270 8.0 11.3 0.00 0.00 0.00 80 1014.7
20260508114122 23 252 6.4 9.7 0.00 0.00 0.00 80 1014.7
20260508113122 23 246 4.8 9.7 0.00 0.00 0.00 80 1014.5
20260508112052 23 252 6.4 9.7 0.00 0.00 0.00 80 1014.4
20260508111033 23 253 6.4 9.7 0.00 0.00 0.00 80 1014.3
20260508104907 23 269 8.0 11.3 0.00 0.00 0.00 79 1014.1
20260508103846 23 272 8.0 11.3 0.00 0.00 0.00 79 1013.9
20260508102857 23 285 9.7 11.3 0.00 0.00 0.00 79 1013.9
20260508101903 23 275 11.3 12.9 0.00 0.00 0.00 79 1013.8
20260508100849 23 267 9.7 12.9 0.00 0.00 0.00 79 1013.6
20260508095904 23 261 9.7 11.3 0.00 0.00 0.00 79 1013.4
20260508094844 23 264 8.0 11.3 0.00 0.00 0.00 78 1013.4
20260508093857 23 255 8.0 9.7 0.00 0.00 0.00 78 1013.3
20260508092833 23 252 6.4 9.7 0.00 0.00 0.00 78 1013.2
20260508091848 23 257 6.4 9.7 0.00 0.00 0.00 78 1013.2
20260508090833 23 253 4.8 8.0 0.00 0.00 0.00 77 1013.2
20260508085855 23 248 4.8 8.0 0.00 0.00 0.00 77 1013.2
20260508084842 23 245 6.4 11.3 0.00 0.00 0.00 77 1013.1
20260508082719 23 225 8.0 11.3 0.00 0.00 0.00 75 1013.2
20260508080618 23 235 6.4 11.3 0.00 0.00 0.00 73 1013.2
20260508075554 23 236 6.4 11.3 0.00 0.00 0.00 72 1013.2
20260508074610 24 236 6.4 9.7 0.00 0.00 0.00 72 1013.2
20260508073547 24 244 8.0 9.7 0.00 0.00 0.00 71 1013.3
20260508072547 24 249 6.4 9.7 0.00 0.00 0.00 71 1013.4
20260508070328 24 244 1.6 3.2 0.00 0.00 0.00 70 1013.2
20260508065331 24 244 1.6 6.4 0.00 0.00 0.00 70 1013.3
20260508064325 25 244 6.4 9.7 0.00 0.00 0.00 69 1013.3
20260508063301 25 269 6.4 9.7 0.00 0.00 0.00 67 1013.4
20260508062256 25 274 4.8 9.7 0.00 0.00 0.00 66 1013.3
20260508061221 25 282 6.4 9.7 0.00 0.00 0.00 66 1013.4
20260508060216 25 273 6.4 9.7 0.00 0.00 0.00 64 1013.5
20260508055239 25 274 8.0 11.3 0.00 0.00 0.00 64 1013.6
20260508054223 25 269 9.7 11.3 0.00 0.00 0.00 64 1013.7
20260508053150 26 280 8.0 11.3 0.00 0.00 0.00 62 1013.8
20260508052134 26 274 6.4 9.7 0.00 0.00 0.00 61 1013.8
20260508050014 26 279 8.0 11.3 0.00 0.00 0.00 63 1013.9
20260508045012 26 288 8.0 11.3 0.00 0.00 0.00 65 1013.8
20260508042844 26 258 6.4 9.7 0.00 0.00 0.00 73 1013.6
20260508041817 26 252 4.8 9.7 0.00 0.00 0.00 77 1013.6
20260508040743 26 238 6.4 8.0 0.00 0.00 0.00 77 1013.4
20260508035713 26 234 4.8 8.0 0.00 0.00 0.00 79 1013.5
20260508034708 26 215 6.4 9.7 0.00 0.00 0.00 78 1013.5
20260508033702 26 220 8.0 11.3 0.00 0.00 0.00 79 1013.6
20260508032641 26 201 9.7 11.3 0.00 0.00 0.00 79 1013.5
20260508031613 26 221 9.7 12.9 0.00 0.00 0.00 79 1013.5
20260508030553 26 201 11.3 14.5 0.00 0.00 0.00 79 1013.5
20260508025606 26 195 11.3 14.5 0.00 0.00 0.00 78 1013.5
20260508023423 26 202 12.9 16.1 0.00 0.00 0.00 79 1013.3
20260508021259 26 185 12.9 17.7 0.00 0.00 0.00 78 1013.2
20260508015122 27 176 12.9 20.9 0.00 0.00 0.00 78 1012.9
20260508011815 27 153 11.3 17.7 0.00 0.00 0.00 79 1012.8
20260508010827 27 139 11.3 17.7 0.00 0.00 0.00 78 1012.7
20260508005847 27 161 11.3 20.9 0.00 0.00 0.00 79 1012.7
20260508004851 27 154 14.5 20.9 0.00 0.00 0.00 79 1012.7
20260508002758 27 140 12.9 25.7 0.00 0.00 0.00 79 1012.7
20260508001811 27 132 16.1 25.7 0.00 0.00 0.00 79 1012.7
20260508000733 27 150 16.1 29.0 0.00 0.00 0.00 79 1012.6
20260507235709 27 152 16.1 30.6 0.00 0.00 0.00 79 1012.5
20260507234637 27 148 16.1 32.2 0.00 0.00 0.00 78 1012.5
20260507232500 27 148 16.1 27.4 0.00 0.00 0.00 77 1012.5
20260507231515 27 144 12.9 22.5 0.00 0.00 0.00 78 1012.5
20260507230455 27 123 11.3 22.5 0.00 0.00 0.00 77 1012.5
20260507225424 27 153 11.3 24.1 0.00 0.00 0.00 76 1012.4
20260507223224 27 133 12.9 22.5 0.00 0.00 0.00 75 1012.3
20260507222241 28 158 12.9 22.5 0.00 0.00 0.00 75 1012.3
20260507221220 28 113 11.3 20.9 0.00 0.00 0.00 74 1012.4
20260507220206 28 133 11.3 20.9 0.00 0.00 0.00 73 1012.4
20260507215147 28 124 12.9 20.9 0.00 0.00 0.00 73 1012.4
20260507214122 27 128 12.9 20.9 0.00 0.00 0.00 74 1012.4
20260507205736 28 152 12.9 22.5 0.00 0.00 0.00 74 1012.7
20260507203549 28 124 12.9 22.5 0.00 0.00 0.00 74 1012.7
20260507202520 28 151 12.9 22.5 0.00 0.00 0.00 74 1012.8
20260507201454 28 133 12.9 22.5 0.00 0.00 0.00 75 1012.9
20260507200429 28 132 11.3 19.3 0.00 0.00 0.00 74 1013.1
20260507195356 28 98 11.3 20.9 0.00 0.00 0.00 75 1013.3
20260507194354 28 112 12.9 22.5 0.00 0.00 0.00 74 1013.4
20260507192231 27 121 11.3 20.9 0.00 0.00 0.00 74 1013.4
20260507191211 27 118 11.3 20.9 0.00 0.00 0.00 74 1013.8
20260507185057 28 96 9.7 16.1 0.00 0.00 0.00 74 1014.1
20260507184042 28 118 8.0 17.7 0.00 0.00 0.00 74 1014.3
20260507183028 27 86 9.7 19.3 0.00 0.00 0.00 73 1014.5
20260507181951 28 131 11.3 19.3 0.00 0.00 0.00 73 1014.6
20260507180935 28 103 9.7 17.7 0.00 0.00 0.00 69 1014.7
20260507174758 27 77 9.7 17.7 0.00 0.00 0.00 72 1014.8
20260507173738 28 99 9.7 17.7 0.00 0.00 0.00 70 1014.8
20260507172746 27 124 11.3 17.7 0.00 0.00 0.00 74 1014.8
20260507171733 27 123 9.7 17.7 0.00 0.00 0.00 73 1014.9
20260507170742 27 115 9.7 17.7 0.00 0.00 0.00 74 1015.0
20260507164628 27 105 9.7 17.7 0.00 0.00 0.00 72 1015.1
20260507163629 28 144 8.0 17.7 0.00 0.00 0.00 70 1015.3
20260507161510 28 171 4.8 9.7 0.00 0.00 0.00 67 1015.5
20260507160522 28 173 0.0 0.0 0.00 0.00 0.00 65 1015.6
20260507155454 28 187 3.2 8.0 0.00 0.00 0.00 66 1015.8
20260507154459 28 202 3.2 9.7 0.00 0.00 0.00 68 1015.8
20260507152318 27 200 8.0 12.9 0.00 0.00 0.00 68 1015.9
20260507151338 27 211 9.7 17.7 0.00 0.00 0.00 69 1016.0
20260507145201 27 193 12.9 16.1 0.00 0.00 0.00 71 1016.1
20260507144153 27 205 12.9 16.1 0.00 0.00 0.00 70 1016.1
20260507143206 26 211 12.9 16.1 0.00 0.00 0.00 70 1016.1
20260507142140 26 205 12.9 16.1 0.00 0.00 0.00 72 1016.2